Theta_e
322 322 321 323 319 318 322 321 318 320 319 320 321 323 324 335 334 332 339 333 335 336 336 337 336 335 336 340 339 339 337 336 334 332 328 322 318 332 335 331 327 316 314 318 322 326 327 327 324
323 324 323 323 319 319 319 319 321 319 319 329 332 336 337 339 339 338 336 339 336 336 335 336 334 335 338 338 338 337 336 334 330 325 320 316 318 336 337 333 328 321 314 312 316 318 319 319 318
323 324 322 319 317 320 320 319 321 320 323 322 326 335 339 340 340 336 338 339 336 334 335 335 334 338 339 338 335 337 337 338 326 322 317 316 325 335 337 335 331 324 315 311 311 315 317 316 315
324 325 323 322 322 321 320 318 320 320 323 320 325 337 342 340 337 337 340 339 338 335 334 339 337 337 337 335 335 338 340 336 328 323 318 322 327 333 336 334 332 323 317 311 311 311 313 313 313
324 323 323 323 324 323 320 321 321 320 319 320 331 338 341 340 339 340 339 340 338 336 335 341 337 339 337 335 337 341 335 333 329 323 319 323 325 330 337 333 328 321 318 312 312 312 312 314 316
324 322 321 324 323 322 320 322 321 319 319 321 336 339 341 341 343 341 341 340 339 333 336 339 339 340 337 335 339 338 329 324 322 320 325 327 326 333 331 328 322 322 318 314 312 314 315 316 318
321 319 321 320 322 323 322 323 321 319 318 317 335 338 339 342 343 342 342 342 339 335 337 340 338 341 338 338 336 335 328 325 319 318 322 323 332 331 328 323 320 320 318 315 313 314 316 317 319
323 317 321 321 323 324 323 324 323 324 321 322 337 336 339 342 343 343 343 341 339 338 341 338 338 340 338 340 337 334 328 326 320 317 321 318 319 320 321 321 320 320 316 315 314 313 316 317 320
323 322 320 321 324 324 323 323 323 323 322 321 333 339 339 342 343 344 342 340 339 340 340 340 337 337 338 337 336 334 332 329 321 319 317 318 318 318 319 317 316 315 316 315 314 314 315 317 318
321 322 321 320 323 324 323 323 323 323 322 323 325 340 341 342 344 345 343 342 341 340 339 338 336 338 339 334 335 334 332 329 326 321 317 315 315 314 314 315 317 316 315 314 314 315 314 316 318
322 322 321 322 322 323 323 323 322 322 320 318 321 321 340 342 344 345 343 343 343 343 341 337 333 333 336 336 336 336 334 331 330 324 325 325 323 321 316 314 313 314 314 314 314 315 315 315 316
321 321 321 322 322 323 323 322 320 320 322 322 320 321 336 343 342 343 342 341 343 343 341 338 335 337 339 336 336 336 336 334 330 329 327 326 325 323 322 319 316 316 316 316 315 315 315 315 316
318 320 322 322 321 319 319 320 318 320 322 323 321 325 335 336 336 338 340 340 342 342 339 336 335 339 339 338 336 337 333 332 331 330 327 326 324 325 325 324 326 328 326 322 319 316 315 316 316
319 319 321 320 320 319 319 320 320 322 322 322 321 324 335 333 334 336 339 340 343 342 340 339 338 338 338 338 336 334 335 335 331 328 328 326 327 328 331 330 328 328 329 328 325 325 322 320 319
319 321 318 319 319 320 319 320 321 321 320 320 321 319 332 333 333 335 333 334 339 341 340 339 340 339 339 338 337 337 336 336 332 329 332 333 332 331 331 332 332 331 331 331 330 328 327 326 326
319 319 321 318 320 319 319 321 320 319 319 320 321 319 322 333 334 336 338 336 338 338 339 339 339 339 339 338 338 337 337 336 335 332 331 334 335 335 333 332 331 331 332 332 331 331 330 330 329
317 321 318 318 319 320 320 319 320 318 319 320 319 320 317 327 334 334 334 335 338 337 338 339 339 339 339 339 339 339 338 338 337 336 334 333 334 335 335 334 333 333 333 332 332 332 332 331 331
320 318 318 317 317 319 320 316 320 319 318 320 319 319 317 318 322 327 333 335 336 338 338 338 340 340 340 339 339 339 339 338 338 337 337 336 335 336 336 335 335 335 335 334 334 334 334 333 333
314 315 316 316 316 317 319 317 319 318 318 318 319 318 316 318 318 318 321 324 326 331 336 337 338 338 339 339 338 338 338 338 338 338 337 337 337 336 336 337 336 336 336 335 334 334 333 333 332
315 315 316 315 315 317 317 318 316 316 316 318 318 317 317 317 318 318 317 318 319 321 324 330 334 335 335 334 335 336 337 337 337 336 335 336 335 335 335 334 334 332 331 331 331 331 331 332 332
314 314 314 315 313 314 315 317 316 316 316 316 316 316 317 316 316 317 317 317 317 317 318 320 323 324 324 325 329 331 329 329 328 327 328 328 330 332 333 333 333 334 334 333 333 329 327 328 330
317 314 314 314 314 317 314 319 313 316 315 313 315 316 317 317 316 315 315 317 316 316 316 316 316 317 318 318 318 318 318 318 319 321 323 324 323 321 320 320 321 321 327 330 326 325 326 325 325
315 315 314 313 312 313 313 314 314 310 311 314 315 315 316 316 316 315 314 314 315 315 315 315 315 315 315 315 315 314 314 314 315 316 317 317 317 317 317 317 318 320 324 326 327 328 326 325 325
314 313 312 311 310 316 311 313 314 312 310 310 310 313 315 316 316 315 313 313 314 314 314 314 314 314 313 313 312 312 312 312 312 312 313 313 314 314 315 315 316 318 320 325 328 325 326 324 326
313 315 313 312 317 316 309 311 315 311 308 308 309 311 313 315 315 314 313 313 314 314 314 313 313 312 312 312 312 312 312 311 311 311 311 311 311 311 311 312 312 314 316 321 325 326 326 326 324
313 313 311 314 314 311 308 312 312 309 310 311 312 311 312 312 313 313 313 314 314 314 314 313 313 313 313 313 313 312 312 312 312 312 312 312 312 311 311 311 312 316 320 324 325 326 327 325 323
313 313 308 310 303 304 308 307 306 305 305 306 308 308 310 311 311 312 314 314 314 314 314 314 313 313 313 312 312 312 312 312 312 312 312 312 312 312 312 312 312 312 312 314 317 320 321 321 320
313 310 314 310 313 312 309 307 309 308 307 306 307 309 309 309 311 313 314 315 315 314 314 313 312 312 311 311 311 311 311 311 311 311 311 311 311 311 311 311 310 310 310 310 311 312 313 315 315
315 315 312 310 307 308 310 309 303 306 305 303 306 310 310 310 312 314 315 315 314 313 313 312 312 311 311 310 310 310 310 310 309 309 309 309 309 309 309 309 310 309 309 309 309 309 309 309 309
313 314 314 315 312 304 301 310 304 303 302 303 307 311 311 312 314 315 315 315 314 313 312 311 311 311 310 309 309 309 308 308 308 308 308 309 308 308 308 308 308 308 308 308 308 308 308 309 309
Wind_Speed
5 6 3 2 3 4 2 4 2 5 1 3 3 4 5 4 5 4 13 24 27 29 28 25 21 19 17 15 13 11 8 5 3 3 5 6 9 13 12 12 14 14 12 9 8 6 5 3 2
6 7 4 3 4 3 4 3 2 3 8 0 5 7 3 2 3 8 27 16 26 28 28 25 22 19 17 15 13 11 7 5 7 7 7 8 12 13 11 9 11 13 11 9 7 6 5 4 4
8 4 3 4 3 5 4 3 2 9 14 6 2 3 3 2 5 25 14 23 27 26 27 25 22 20 18 15 12 10 9 10 8 7 9 10 13 13 11 7 8 10 10 10 9 8 7 7 7
11 5 5 4 4 5 4 3 4 10 8 2 3 3 5 7 17 13 18 25 28 25 26 24 22 20 17 14 12 11 11 8 6 6 10 11 12 12 10 7 6 9 10 10 10 9 9 9 8
13 1 4 3 4 4 3 3 6 5 6 6 1 3 3 13 11 11 15 23 23 24 25 22 21 19 17 15 14 13 8 3 3 7 11 12 12 12 10 7 6 8 9 9 9 9 8 8 8
6 5 4 9 5 2 3 6 4 6 8 6 2 3 4 10 7 14 16 20 22 23 25 22 21 19 17 16 15 11 7 3 2 6 10 13 12 12 10 7 7 6 7 8 8 7 7 6 6
8 3 4 8 6 1 1 8 5 6 10 4 4 2 3 12 13 18 17 18 21 23 24 23 21 19 17 16 14 11 7 4 4 5 9 9 11 11 10 8 6 5 4 6 7 7 6 4 3
4 4 4 4 11 4 3 4 6 13 3 12 1 4 6 18 21 19 18 18 21 21 21 23 21 20 18 16 13 10 8 5 7 6 5 6 6 5 5 4 2 2 2 2 2 4 6 6 6
6 3 5 8 7 5 5 4 7 9 10 9 3 6 5 24 24 22 22 22 22 22 21 21 21 20 18 16 14 12 8 5 8 8 8 7 6 5 4 4 3 2 2 2 3 4 4 5 6
5 5 3 4 3 5 6 4 9 8 21 11 20 4 16 27 27 25 26 24 24 23 22 22 21 20 18 16 15 12 9 7 7 7 6 6 7 6 6 6 5 4 4 3 4 4 6 7 8
4 6 4 6 10 7 6 3 5 7 4 9 23 20 7 24 28 26 23 21 19 19 19 20 21 21 19 17 15 13 10 9 8 9 7 6 6 6 6 6 6 6 5 5 5 5 6 7 9
2 3 7 5 4 3 3 3 8 5 7 17 24 20 15 24 24 25 24 22 19 16 13 16 20 20 18 14 14 12 11 10 10 9 10 8 7 7 6 5 5 5 6 6 6 6 7 8 10
1 4 11 7 3 7 8 4 4 24 22 22 23 11 15 19 19 20 20 19 18 15 12 13 17 19 17 15 14 13 11 8 7 10 10 10 8 5 7 7 7 5 5 6 6 7 9 10 11
8 8 17 13 7 8 6 7 4 27 21 20 24 17 13 19 20 18 21 20 19 15 14 13 13 14 14 13 12 11 9 7 7 9 8 8 7 7 6 7 8 7 6 6 6 7 9 10 12
10 7 6 6 9 3 5 6 10 35 28 32 29 21 12 21 20 22 21 20 19 16 14 14 14 13 14 12 11 11 9 9 8 8 8 8 8 9 9 9 8 7 8 8 8 9 10 12 13
5 5 6 6 17 11 15 7 14 26 19 28 28 25 16 13 20 19 18 19 19 19 18 15 15 15 14 14 12 12 11 11 10 10 11 11 11 10 11 11 11 9 10 11 12 12 13 15 16
3 4 5 7 19 8 9 4 12 10 24 28 31 27 20 11 14 14 15 16 18 17 17 18 16 16 15 14 15 15 16 16 14 13 14 15 15 14 15 14 13 12 14 15 16 17 18 19 19
6 4 2 5 11 10 13 3 13 24 25 29 33 24 22 15 14 14 14 15 15 15 16 17 19 18 16 17 19 20 20 21 20 19 18 17 18 18 18 18 17 17 18 19 19 21 21 23 23
6 5 6 3 4 9 12 8 14 20 17 26 35 28 27 20 16 16 19 19 18 17 19 20 18 17 17 18 19 20 22 22 22 21 21 21 22 22 22 22 22 22 23 23 24 26 27 28 28
6 5 2 1 2 6 8 10 9 20 22 31 37 36 32 28 23 19 19 20 21 20 20 20 21 21 22 23 24 25 24 23 23 23 24 25 26 27 28 28 26 26 27 26 26 27 29 30 30
2 6 3 2 2 1 4 6 8 8 17 26 34 34 27 20 28 23 21 22 20 21 21 21 20 21 22 23 24 24 25 27 27 26 27 27 26 26 27 27 27 28 29 28 27 26 27 30 30
2 3 5 2 3 3 1 4 6 12 13 11 30 37 38 28 19 24 23 25 26 24 21 19 19 20 21 22 23 24 25 27 27 27 27 28 27 26 25 25 26 26 26 26 25 23 21 20 22
2 2 4 3 3 3 2 2 4 3 8 20 21 24 33 28 23 23 24 23 22 20 19 18 18 18 19 21 22 24 26 28 28 27 26 26 27 28 27 27 26 25 26 25 24 23 21 20 21
4 5 6 4 2 2 7 6 4 6 7 5 10 27 32 32 25 23 25 23 21 19 16 15 15 16 17 17 17 16 16 18 21 24 25 25 25 26 26 27 27 26 24 25 24 24 22 21 20
4 3 1 2 1 5 3 5 11 4 7 7 9 14 18 26 29 31 30 26 21 18 16 15 15 14 13 12 11 10 10 10 11 11 12 13 14 15 16 17 18 19 21 23 24 23 22 20 21
4 6 4 5 4 4 1 7 5 5 11 20 21 18 14 17 28 32 31 27 22 19 16 14 13 12 12 12 12 12 12 12 13 14 14 14 15 15 15 15 16 18 18 19 20 21 22 21 21
4 3 4 4 2 3 4 7 8 7 9 13 15 16 19 20 29 33 30 25 21 17 14 12 11 12 13 13 13 13 13 13 14 15 16 17 17 17 18 18 18 18 18 19 19 19 17 19 21
1 5 2 2 2 4 5 5 6 6 7 5 8 16 17 21 28 30 27 22 18 15 13 11 10 10 11 11 11 12 12 13 13 14 14 15 16 16 17 17 17 17 17 17 17 18 19 20 22
3 3 1 3 4 4 3 5 6 5 7 8 10 13 17 25 29 27 22 18 16 13 11 10 9 9 9 10 11 11 11 11 12 12 13 13 14 14 15 16 16 16 16 16 15 16 15 15 15
4 3 5 3 4 1 3 9 3 6 8 11 11 11 17 25 27 24 21 18 16 13 11 9 8 8 9 10 10 10 10 10 10 11 12 12 13 13 14 15 15 15 15 15 15 14 14 12 10
Wind_Direction
156 117 98 207 76 67 225 254 271 316 257 258 179 157 172 103 160 197 155 162 167 162 163 166 168 167 169 167 165 161 161 167 179 159 110 95 108 112 98 84 69 71 83 103 123 141 143 136 111
179 129 118 109 98 114 255 248 296 284 317 11 114 105 95 116 130 149 152 158 168 163 163 165 165 166 167 168 166 164 163 150 128 117 98 105 123 120 115 96 76 70 73 84 109 128 126 121 104
197 170 150 99 109 173 203 180 317 311 325 224 324 74 97 93 152 150 165 159 167 166 164 165 165 167 170 168 168 162 156 132 118 103 99 110 126 124 122 118 86 73 73 81 96 105 118 118 110
193 153 84 100 192 255 209 88 337 349 357 243 271 71 101 102 136 144 154 162 167 168 166 164 166 170 172 167 166 156 161 161 135 119 119 121 121 125 128 124 101 79 74 82 92 103 109 108 104
186 223 93 119 213 273 297 317 353 350 297 304 165 218 95 154 139 159 159 160 169 168 166 168 170 171 171 168 164 170 174 174 184 155 137 134 133 134 148 138 119 97 86 90 96 102 108 110 104
113 250 133 207 208 227 311 343 24 2 321 309 145 157 142 169 163 164 164 160 169 172 169 171 175 177 175 170 170 176 160 134 164 164 155 147 150 146 159 150 140 125 104 100 109 113 119 110 94
142 146 181 188 174 245 72 340 59 354 313 6 158 115 173 165 162 158 160 166 169 174 173 173 178 182 181 178 180 182 175 165 163 171 161 150 153 162 165 164 161 139 112 121 135 144 148 142 136
178 104 116 171 194 188 54 19 27 17 309 344 245 227 186 167 160 157 159 166 171 175 177 180 183 187 189 187 186 189 191 178 182 181 160 144 161 159 164 172 158 103 77 77 121 171 182 187 198
157 112 179 179 159 157 70 52 355 9 342 338 289 266 237 162 161 161 163 168 171 177 180 186 188 195 197 199 196 195 202 197 191 195 198 189 182 194 201 201 207 218 191 176 181 199 225 248 256
157 200 155 163 105 99 79 75 349 5 342 35 21 20 161 167 168 170 169 172 177 182 188 192 194 197 202 207 206 208 209 214 208 208 202 206 213 215 226 234 238 247 253 245 235 229 229 237 248
189 201 148 46 102 118 108 47 0 6 5 26 339 327 201 184 178 179 176 179 179 180 189 195 198 198 203 205 210 215 221 227 226 214 216 221 227 239 249 250 257 258 265 265 258 252 251 250 251
171 168 146 126 71 81 54 321 340 296 251 316 331 318 225 197 190 188 183 185 190 187 194 202 198 198 204 207 217 226 234 238 237 232 236 248 257 266 253 254 254 258 265 270 271 266 261 259 260
198 122 142 129 149 38 338 3 324 287 281 308 321 329 203 205 204 200 193 192 193 197 192 185 192 199 208 213 219 227 235 229 236 238 245 257 262 260 254 250 253 265 289 286 282 277 276 273 270
159 152 145 168 134 26 14 340 342 267 280 292 325 329 237 220 212 202 199 200 203 202 200 191 190 197 205 212 220 221 219 233 242 235 243 252 254 251 261 259 257 259 283 295 289 288 281 277 274
124 110 97 164 169 138 73 313 241 257 284 288 299 319 269 222 216 210 206 208 210 209 207 207 204 205 210 214 217 219 227 239 242 240 242 252 255 259 264 265 267 269 274 286 295 296 293 291 288
120 111 139 172 154 155 145 242 248 260 293 285 291 302 282 223 219 214 212 214 215 214 212 211 217 221 224 227 229 233 240 248 255 254 255 258 264 266 269 271 274 276 277 280 284 290 290 290 287
41 156 128 162 178 145 186 180 200 258 270 279 282 286 282 232 208 204 206 214 218 222 220 217 223 226 231 238 242 247 249 253 257 259 259 261 264 266 270 276 279 277 276 281 285 286 288 291 292
162 105 142 139 194 171 196 207 163 184 246 256 274 276 278 249 207 203 201 198 204 211 218 225 231 233 231 237 241 244 248 252 256 259 263 264 266 266 267 271 276 278 277 278 282 285 286 287 289
123 111 140 196 201 184 196 204 174 181 195 268 275 270 273 250 234 224 209 205 207 213 219 222 227 231 234 239 247 253 259 259 259 262 267 267 267 266 267 270 273 276 278 281 282 282 281 282 284
140 120 119 317 141 166 184 205 215 184 189 218 248 259 265 253 237 230 223 215 213 215 218 222 229 235 238 241 245 250 256 258 260 262 263 265 266 268 269 270 272 273 276 276 277 280 281 281 281
59 127 143 121 31 53 147 250 226 231 220 212 230 247 251 257 241 237 220 219 220 219 220 219 220 227 235 240 244 248 252 256 259 260 260 261 263 264 267 269 269 269 270 272 274 276 277 278 278
104 140 139 134 77 222 232 278 244 227 225 222 236 242 249 246 244 230 220 217 216 214 214 219 226 231 236 241 246 251 256 259 260 260 260 261 263 266 269 270 269 269 267 268 273 272 273 276 280
187 69 128 111 97 25 310 306 252 204 238 237 244 239 245 243 236 226 216 210 207 211 218 226 233 240 245 250 254 257 258 258 258 258 259 261 264 266 268 270 269 267 264 265 265 265 270 277 279
145 70 54 59 86 257 225 187 254 210 219 244 232 242 241 237 226 219 207 202 203 207 217 230 241 251 256 260 263 262 260 257 256 257 258 258 259 260 262 264 265 265 264 263 262 267 271 273 272
91 83 44 3 219 232 337 251 247 234 243 222 236 246 240 231 216 204 202 200 202 209 220 233 243 249 253 252 252 254 257 257 256 257 258 259 259 260 262 266 267 266 262 261 259 260 262 267 275
143 171 160 194 198 242 298 228 245 244 258 251 256 248 250 228 214 201 197 198 203 209 215 225 235 242 248 253 257 261 264 265 267 268 269 269 268 266 265 265 263 260 260 258 257 257 258 264 270
172 173 150 92 14 37 244 297 281 274 269 273 274 265 249 218 202 193 190 196 200 206 213 219 229 244 253 260 265 268 269 269 270 272 274 275 275 274 273 270 268 266 263 261 261 261 258 259 262
116 164 108 92 221 259 281 272 236 287 281 274 256 245 239 205 192 187 188 190 194 203 214 226 234 243 254 261 266 269 273 276 278 279 280 279 277 277 275 274 272 271 268 266 263 261 260 260 262
150 193 131 124 161 195 283 263 225 233 263 289 269 234 212 196 185 185 186 189 197 207 217 226 235 245 255 262 265 267 270 274 278 281 282 283 283 281 278 276 274 272 270 268 267 265 264 264 267
189 212 173 210 200 218 146 259 224 241 268 282 264 210 196 190 185 188 191 197 205 212 221 230 239 252 262 264 265 266 268 270 275 279 283 284 282 279 277 273 271 269 268 267 265 264 264 263 263